Starlink 3554

operational
NORAD ID: 51872 Int'l Des: 2022-022 Owner: SPXS Country: US Constellation: starlink
LEOCIRCULAR

Über Starlink 3554

Beschreibung wird geladen...

Live-Position

3D-Globus wird geladen...

Nächste Überflüge

Höhenverlauf

Altitude vs Time

uPlot chart will show altitude changes over time

Zweizeiliger Elementsatz

1 51872U 22022W 25305.51347469 .00000503 00000-0 49684-4 0 9998
2 51872 53.2168 224.5265 0001499 84.7683 275.3480 15.08836503203761
Epoch: 1. Nov. 2025 • Age: 16 hours

Aktueller Status

Höhe 545.2 km
Geschwindigkeit 7.60 km/s
Subsatellitenpunkt 52.93°N, 169.24°W
Startdatum 3. März 2022
Alter 3.6 years
Typ internet

Technische Details

Klassifizierung Payload
Masse 297.00 kg
Trockenmasse 275.00 kg
Gesamtmasse 297.00 kg
Länge 0.20 m
Durchmesser 2.80 m
Spannweite 9.00 m
Form Box + pan
Hersteller SPXS
Bus-Typ Starlink
Phasenstatus In Orbit
Besitzer/Staat SPXS/US

Große Konstellationen

Loading constellations...